STARLINK-30432, 57864

Orbit data source: Space-Track

STARLINK-30432, 57864 is a payload satellite owned by SpaceX/Seattle (US) in LEO that was launched on Sat, 16 Sep 2023 UTC via an FALCON 9 launch vehicle from the Air Force Eastern Test Range (AFETR). Payload-class satellites include a variety of spacecraft equipped with specific instruments for various scientific and technological missions. These include communications satellites like Starlink; space stations such as the ISS; scientific satellites like the Hubble; Earth observation satellites from companies like Planet Labs, Umbra, and HawkEye 360; GPS; miniature CubeSats for education and research; and military/defense satellites.

Loading next visibility...
Identifier
57864, 2023-144A
Orbit
LEO
Country
Flag of USUS
Related business
Manufacturer
SpaceX/Seattle
Mission
Operational Commercial Communications
Bus & Motor
STARLINK V2M, Unknown motor
Mass
730 kg wet, ~700 kg dry
Launch date (UTC)
2023-09-16 (3 years ago)
Launch vehicle
FALCON 9
Launch site
Air Force Eastern Test Range (AFETR)
Object type
Payload
Rocket body
Debris
Shape & HBR
Box + 2 Pan, 17.7 m
Radar Cross Section
33.884 m², Large (>1 m²)

Expand to show TLE details & history
Last TLE update: 2 days ago

TLE from 2 days ago
0 STARLINK-30432
1 57864U 23144A   26171.04865115  .00001005  00000-0  46029-4 0  9992
2 57864  43.0040  66.9916 0001688 272.0264  88.0394 15.27594769153259
Epoch: 2026-06-20T01:10Z
TLE epoch observation values (Epoch: 2026-06-20T01:10:03.459Z)
Latitude
-0.00004°
Longitude
141.20828°
Altitude
482.741 km
Speed
7.626 km/s
True Right ascension
04h 27m 57s
True Declination
0° 00' 00"
Sunlit
Object was in daylight at epoch
Visualization orbit readout
Latitude
Unknown
Longitude
Unknown
Altitude
Unknown
Speed
Unknown
Apparent Right ascension
Unknown
Apparent Declination
Unknown
Sunlit
N/A
Visualization observer readout
Local Sidereal Time
21:54:29
Azimuth
Unknown
Elevation
Unknown
Doppler factor
Unknown
Orbital elements
Apogee altitude
486.108 km
Perigee altitude
483.791 km
Semi-major axis
6,863.086 km
Eccentricity
0.00017
Inclination
43.004°
RAAN
66.9916°
Arg. of periapsis
272.0264°
True anomaly
88.05873°
Mean anomaly
88.0394°
Eccentric anomaly
88.04907°
Mean motion
3.81737 °/min
Orbital period
94.31 mins
BSTAR
0.000046029
Loading maneuver chart data...
Computing Atmospheric mass density...
Loading historical data...
Loading historical data...
Loading historical data...
Loading historical data...
Loading historical data...
Loading historical data...
Loading historical data...

Documentation

Showing up to 5 results
|